ALSAT 1B

Last updated on Mon Sep 15 2025 00:02:31 GMT+0000 (Coordinated Universal Time)

1 41785U 16059C 25257.28111169 .00000316 00000+0 58008-4 0 9990 2 41785 97.7876 272.8985 0010268 40.5850 319.6121 14.71922059479981
UTC large
Height (km)
Speed (km/s)
/
Latitude / Longitude
Inclination (degrees)
Orbital Period (minutes)
Azimuth
Elevation
Range (km)
Doppler Factor

Next 0 passes for location: London (51.5072 / 0.1276)

Sorry there are no passes over London.